Location: ?
(35.4554°N, 139.3092°E)
Time: 22:17:16
(UTC+00:00)

Cosmos 2082 Rocket - Pass Details

Date: 21 April 2021
Orbit: 835 x 852 km, 71.0° (Epoch: 10 May)

Event Time Altitude Azimuth Distance (km) Brightness Sun altitude
Rises 18:01:39 0° 325° (NW) 3,387 5.4 -22.9°
Reaches altitude 10° 18:04:26 10° 313° (NW) 2,448 4.5 -22.5°
Enters shadow 18:05:57 17° 301° (WNW) 2,012 3.9 -22.2°
